Location: Peebles
(55.6412°N, 3.1714°W)
Time: 20:04:43
(UTC+01:00)

Transit 2A - All Passes

Search period start: 02 October 2022 00:00
Search period end: 12 October 2022 00:00
Orbit: 601 x 956 km, 66.7° (Epoch: 02 October)

Date Brightness Start Highest point End Pass type
(mag) Time Alt. Az. Time Alt. Az. Time Alt. Az.
02 Oct - 00:29:41 10° S 00:33:44 37° ESE 00:37:45 10° NE visible
02 Oct - 02:12:32 10° WSW 02:16:46 48° NW 02:21:03 10° NE visible
02 Oct - 03:57:27 10° WNW 04:00:52 22° NNW 04:04:22 10° NE visible
02 Oct - 05:41:52 10° NW 05:45:24 23° NNE 05:49:05 10° ENE visible
02 Oct - 07:25:02 10° NW 07:29:26 51° NE 07:34:10 10° ESE daylight
02 Oct - 09:08:14 10° NW 09:12:31 39° WSW 09:17:07 10° S daylight
02 Oct - 23:55:48 10° S 23:59:30 27° ESE 00:03:10 10° ENE night (unlit)
03 Oct - 01:37:59 10° WSW 01:42:18 62° NW 01:46:41 10° NE visible
03 Oct - 03:22:40 10° WNW 03:26:14 24° NNW 03:29:53 10° NE visible
03 Oct - 05:07:21 10° NW 05:10:45 21° N 05:14:17 10° ENE visible
03 Oct - 06:50:41 10° NW 06:54:57 41° NE 06:59:31 10° ESE daylight
03 Oct - 08:33:45 10° NW 08:38:13 53° SW 08:43:03 10° SSE daylight
03 Oct - 10:19:35 10° W 10:20:28 10° WSW 10:21:22 10° WSW daylight
03 Oct - 23:22:10 10° SSE 23:25:18 19° ESE 23:28:26 10° ENE night (unlit)
04 Oct - 01:03:31 10° SW 01:07:53 82° NW 01:12:18 10° NE visible
04 Oct - 02:47:53 10° W 02:51:37 27° NNW 02:55:25 10° NE visible
04 Oct - 04:32:47 10° NW 04:36:06 20° N 04:39:31 10° NE visible
04 Oct - 06:16:19 10° NW 06:20:25 34° NNE 06:24:47 10° E visible
04 Oct - 07:59:20 10° NW 08:03:53 71° SW 08:08:50 10° SSE daylight
04 Oct - 09:43:41 10° WNW 09:46:21 15° WSW 09:49:07 10° SW daylight
04 Oct - 22:48:55 10° SE 22:51:10 14° ESE 22:53:23 10° ENE night (unlit)
05 Oct - 00:29:09 10° SW 00:33:31 75° SE 00:37:54 10° NE visible
05 Oct - 02:13:08 10° W 02:17:02 31° NNW 02:21:01 10° NE visible
05 Oct - 03:58:08 10° NW 04:01:25 20° N 04:04:49 10° NE visible
05 Oct - 05:41:55 10° NW 05:45:51 29° NNE 05:50:00 10° E visible
05 Oct - 07:24:56 10° NW 07:29:30 88° NE 07:34:29 10° SE daylight
05 Oct - 09:08:43 10° WNW 09:12:10 21° WSW 09:15:51 10° SSW daylight
05 Oct - 23:54:55 10° SSW 23:59:11 54° SE 00:03:27 10° NE night (unlit)
06 Oct - 01:38:25 10° W 01:42:29 37° NNW 01:46:38 10° NE visible
06 Oct - 03:23:26 10° NW 03:26:45 21° N 03:30:11 10° NE visible
06 Oct - 05:07:31 10° NW 05:11:15 26° NNE 05:15:12 10° ENE visible
06 Oct - 06:50:33 10° NW 06:55:05 68° NE 07:00:01 10° SE daylight
06 Oct - 08:34:00 10° WNW 08:37:58 28° WSW 08:42:12 10° S daylight
06 Oct - 23:20:50 10° S 23:24:53 39° ESE 23:28:58 10° NE night (unlit)
07 Oct - 01:03:46 10° WSW 01:07:58 46° NW 01:12:14 10° NE visible
07 Oct - 02:48:41 10° WNW 02:52:06 22° N 02:55:37 10° NE visible
07 Oct - 04:33:02 10° NW 04:36:38 23° NNE 04:40:23 10° ENE visible
07 Oct - 06:16:12 10° NW 06:20:39 53° NE 06:25:28 10° ESE visible
07 Oct - 07:59:25 10° NW 08:03:42 38° WSW 08:08:20 10° S daylight
07 Oct - 22:46:55 10° S 22:50:39 28° ESE 22:54:23 10° ENE night (unlit)
08 Oct - 00:29:12 10° WSW 00:33:30 59° NW 00:37:52 10° NE visible
08 Oct - 02:13:54 10° WNW 02:17:27 23° NNW 02:21:06 10° NE visible
08 Oct - 03:58:32 10° NW 04:01:59 21° N 04:05:34 10° ENE visible
08 Oct - 05:41:50 10° NW 05:46:09 42° NE 05:50:49 10° ESE visible
08 Oct - 07:24:56 10° NW 07:29:25 51° SW 07:34:17 10° SSE daylight
08 Oct - 09:11:14 10° W 09:11:38 10° WSW 09:12:02 10° WSW daylight
08 Oct - 22:13:14 10° SSE 22:16:28 20° ESE 22:19:41 10° ENE night (unlit)
08 Oct - 23:54:42 10° SW 23:59:05 79° NW 00:03:30 10° NE night (unlit)
09 Oct - 01:39:07 10° W 01:42:50 26° NNW 01:46:38 10° NE visible
09 Oct - 03:23:58 10° NW 03:27:19 21° N 03:30:49 10° NE visible
09 Oct - 05:07:28 10° NW 05:11:38 35° NNE 05:16:05 10° E visible
09 Oct - 06:50:29 10° NW 06:55:04 68° SW 07:00:05 10° SSE visible
09 Oct - 08:34:56 10° WNW 08:37:31 15° WSW 08:40:13 10° SW daylight
09 Oct - 21:39:55 10° SE 21:42:19 15° ESE 21:44:42 10° ENE night (unlit)
09 Oct - 23:20:20 10° SW 23:24:41 78° SE 23:29:06 10° NE night (unlit)
10 Oct - 01:04:21 10° W 01:08:15 30° NNW 01:12:13 10° NE visible
10 Oct - 02:49:20 10° NW 02:52:39 20° N 02:56:05 10° NE visible
10 Oct - 04:33:04 10° NW 04:37:04 30° NNE 04:41:18 10° E visible
10 Oct - 06:16:05 10° NW 06:20:42 89° SW 06:25:44 10° SE visible
10 Oct - 07:59:54 10° WNW 08:03:21 20° WSW 08:06:59 10° SSW daylight
10 Oct - 22:46:04 10° SSW 22:50:21 57° SE 22:54:40 10° NE night (unlit)
11 Oct - 00:29:38 10° W 00:33:41 36° NNW 00:37:50 10° NE visible
11 Oct - 02:14:38 10° NW 02:17:59 21° N 02:21:26 10° NE visible
11 Oct - 03:58:40 10° NW 04:02:28 26° NNE 04:06:30 10° ENE visible
11 Oct - 05:41:43 10° NW 05:46:18 71° NE 05:51:18 10° SE visible
11 Oct - 07:25:11 10° WNW 07:29:08 27° WSW 07:33:23 10° S daylight
11 Oct - 22:11:58 10° SSW 22:16:03 41° ESE 22:20:10 10° NE night (unlit)
